Šilalė

Lithuania     55˚29′27″N   22˚10′56″E
temp.,
°C
wind,
m/s
gust,
m/s
humid.,
%
clouds,
%
prec.,
mm/h
press.,
hPa
HPBL,
m
27 november, fri
fri2723:00+4˚sw61295100 1.7 1010527
02:00+6˚wsw41194100 3.6 1010563
05:00+6˚nnw7129168 0.3 1011727
08:00+3˚nw4108952 0.3 1012403
11:00+5˚nw487737 0.0 10141025
14:00+5˚nw5107369 0.1 10151136
17:00+4˚nw41081100 0.3 10151006
20:00+2˚nnw489398 0.5 1015656
28 november, sat
sat2823:00n4108757 0.1 1016589
02:00+1˚nne478071 0.1 1018916
05:00−1˚nne389346 0.0 1019508
08:00−1˚nne399024 0.0 1021498
11:00+3˚nne497556 0.0 1022891
14:00+2˚nne697975 0.1 1021854
17:00+1˚nne589096 0.0 1021563
20:00+2˚nne489697 0.2 1022520
29 november, sun
sun2923:00+1˚ne499096 0.1 1022567
02:00ne489090 0.1 1023414
05:00ene479594 0.1 1023433
08:00−1˚ene378982 0.2 1023310
11:00ene468212 0.0 1024320
14:00+1˚ene468314 0.0 1023561
17:00ene358597 0.1 1023552
20:00ne348199 0.1 1024568
30 november, mon
mon3023:00n2484100 0.1 1023313
02:00nnw2387100 0.1 1023223
05:00−1˚wnw3587100 0.1 1023279
08:00−1˚w2484100 0.1 1023304
11:00wsw357763 0.0 1023312
14:00sw468968 0.0 1023479
17:00−1˚ssw379894 0.1 1023257
20:00ssw6109797 1.6 1023467
1 december, tue
tue123:00−1˚ssw61195100 1.8 1022451
02:00−1˚ssw61193100 1.9 1021552
05:00ssw61192100 0.0 1020627
08:00ssw61098100 0.1 1021637
11:00s51098100 0.4 1021562
14:00s5898100 0.8 1021472
17:00s4898100 0.6 1022480
20:00sse4798100 1.1 1023429